Regional Weather Roundup
Issued by NWS State College, PA

Home | Current Version | Previous Version | Graphics & Text | Print | Product List | Glossary Off
Versions: 1 2 3 4 5 6 7 8 9 10 11 12 13 14 15 16 17 18 19 20 21 22 23 24 25 26 27 28 29 30 31 32 33 34 35 36 37 38 39 40 41 42 43 44 45 46 47 48 49 50

725
ASUS41 KCTP 272210
RWRCTP

REGIONAL WEATHER ROUNDUP
NATIONAL WEATHER SERVICE STATE COLLEGE PA
600 PM EDT FRI MAY 27 2016

Note: "fair" indicates few or no clouds below 12,000 feet with no
significant weather and/or obstructions to visibility.

* = STATION THAT DOES NOT REPORT PRECIPITATION /E.G. RAIN...SNOW...ETC/
    THUNDER OR FOG.

PAZ002>004-007>009-013>016-020>023-029>032-272300-
WESTERN PENNSYLVANIA

CITY           SKY/WX    TMP DP  RH WIND       PRES   REMARKS
ERIE           PTSUNNY   78  63  59 W5        30.01S
MEADVILLE      MOSUNNY   80  58  46 W10       30.03F
FRANKLIN*      MOSUNNY   82  61  47 W7        30.06S
NEW CASTLE     FAIR      84  63  49 W9        30.02F
BEAVER COUNTY  MOSUNNY   81  63  54 SW5       30.03F
BUTLER*        SUNNY     84  63  48 W6        30.05F
PITTSBURGH INT PTSUNNY   86  59  39 W9        30.02F
PITTSBURGH     SUNNY     85  59  41 SW10      30.02F
INDIANA*       MOSUNNY   84  64  51 W10       30.07F
LATROBE        MOSUNNY   82  64  54 W7        30.04F
WASHINGTON CO* SUNNY     84  63  48 SW6       30.04F
$$

PAZ004>006-010>012-017>019-024>028-033>037-041-042-045-046-049>053-272300-
CENTRAL PENNSYLVANIA

CITY           SKY/WX    TMP DP  RH WIND       PRES   REMARKS
BRADFORD       MOSUNNY   81  55  40 VRB5      30.06F
DUBOIS         MOSUNNY   78  60  53 W9        30.05F
CLEARFIELD     SUNNY     84  60  44 W8        30.04F
JOHNSTOWN      MOSUNNY   82  57  42 W9        30.08F
ALTOONA        CLOUDY    75  67  76 S7        30.06F
STATE COLLEGE  MOSUNNY   81  64  57 S9G20     30.03F
WILLIAMSPORT   CLOUDY    83  65  54 SE5       29.97F
SELINSGROVE    MOSUNNY   88  65  46 S7        30.00S
FT INDIANTOWN  MOSUNNY   88  66  48 SW8       30.01F
CAPITAL CITY   MOSUNNY   87  64  46 SW7       30.00F
HARRISBURG     PTSUNNY   89  67  47 CALM      29.99F
YORK           SUNNY     87  66  49 S6        30.01F
$$

PAZ038>040-043-044-047-048-054-055-060>062-067>071-272300-
EASTERN PENNSYLVANIA

CITY           SKY/WX    TMP DP  RH WIND       PRES   REMARKS
SCRANTON       SUNNY     87  62  43 SW12      30.01S
MOUNT POCONO   SUNNY     80  63  55 SW10      30.07F
ALLENTOWN      MOSUNNY   86  65  49 SW8       30.00F
QUAKERTOWN*    PTCLDY    86  68  54 SW9       30.02F
READING        MOSUNNY   89  64  43 W8        29.99F
LANCASTER      CLOUDY    87  64  46 SW10      30.01F
COATESVILLE    MOCLDY    84  66  54 VRB5G14   30.05F
POTTSTOWN      SUNNY     85  68  56 S10       30.03F
BLUE BELL      CLOUDY    86  66  51 SW10      30.01F
DOYLESTOWN     MOSUNNY   85  64  49 VRB7      30.01F
WILLOW GROVE   NOT AVBL
NORTH PHILA    MOSUNNY   89  66  46 SW9       30.02F
PHILADELPHIA   PTSUNNY   89  64  43 SW15      30.02F
$$




USA.gov is the U.S. government's official web portal to all federal, state and local government web resources and services.